Location: Unspecified
(56.5167°N, 0.0000°E)
Time: 17:01:00
(UTC+01:00)

Resurs 1-4 Rocket - Pass Details

Date: 25 January 2018
Orbit: 801 x 813 km, 98.5° (Epoch: 24 February)

Event Time Altitude Azimuth Distance (km) Brightness Sun altitude
Rises 05:30:44 0° 12° (NNE) 3,338 5.6 -29.7°
Reaches altitude 10° 05:33:42 10° 356° (N) 2,405 4.6 -29.3°
Enters shadow 05:34:11 12° 351° (N) 2,279 4.4 -29.2°
